Theta_e
307 308 308 308 308 308 308 307 306 306 305 304 307 310 310 309 309 320 325 319 316 315 318 318 318 321 322 323 323 324 326 327 329 331 336 334 335 340 340 344 347 348 347 350 351
308 309 309 309 310 309 309 308 306 306 305 306 309 311 310 310 321 324 318 313 313 315 321 319 321 320 322 322 323 323 324 327 331 332 332 330 328 328 332 338 343 347 349 350 350
309 310 310 310 310 310 309 307 306 305 305 308 309 311 309 311 329 325 315 313 314 314 320 319 320 321 321 323 323 322 324 326 329 330 330 329 328 327 329 333 338 344 351 351 350
310 310 311 311 311 310 310 307 306 306 307 308 311 311 308 322 330 325 316 315 314 317 319 319 320 320 321 321 323 322 322 324 327 329 329 329 328 327 328 331 336 340 350 350 351
310 311 311 311 311 311 310 307 306 308 309 310 311 308 315 327 325 322 315 317 316 318 318 320 320 321 321 321 322 321 322 322 323 325 327 328 327 326 327 329 335 338 346 351 350
310 310 310 310 311 311 310 308 308 310 311 311 310 308 323 326 325 321 319 319 320 318 320 322 322 322 322 322 321 322 322 322 322 323 326 326 327 326 329 331 332 342 345 349 349
310 310 310 310 310 311 310 308 309 311 311 310 309 316 324 325 325 323 322 320 319 320 321 320 321 321 322 322 322 322 321 322 322 323 324 325 326 326 329 330 332 341 345 348 349
309 309 309 309 310 311 310 310 315 311 312 310 313 324 323 323 324 322 320 320 319 319 320 321 321 323 322 323 321 321 323 323 324 324 324 323 325 327 329 329 330 336 344 348 349
308 309 309 309 310 311 310 315 315 313 313 316 327 330 322 321 324 323 322 322 322 322 322 321 322 323 322 322 323 323 325 325 325 326 325 323 324 334 333 330 331 341 346 348 349
307 308 308 309 310 311 311 317 316 319 320 324 325 329 324 322 323 323 323 324 323 323 323 323 322 323 322 323 325 325 325 324 326 328 328 329 332 334 337 333 335 338 342 345 348
307 307 308 308 310 311 315 321 325 328 327 327 325 326 324 323 321 323 324 324 324 323 325 324 325 327 325 325 325 324 324 325 325 328 330 331 334 337 338 339 340 341 340 342 346
306 307 307 308 310 312 317 325 323 322 324 322 322 323 323 320 321 323 323 324 324 326 326 327 328 325 325 324 324 324 324 326 327 327 329 332 334 335 338 340 341 343 344 344 343
305 307 307 308 310 315 322 323 321 321 325 321 322 322 322 322 321 323 324 324 325 327 326 329 327 324 324 324 325 324 326 326 327 329 326 326 334 340 337 337 339 341 343 346 347
305 307 307 308 316 320 323 322 321 321 326 321 322 323 323 324 322 322 322 324 326 326 326 328 325 324 325 325 326 328 325 324 325 325 327 329 332 339 336 335 338 341 342 345 346
305 307 307 308 314 320 325 320 321 322 332 321 321 323 323 324 324 322 322 325 326 326 326 328 326 325 326 327 325 327 325 325 326 326 327 327 327 339 338 336 338 339 341 344 346
305 307 308 316 318 318 319 321 323 328 329 323 323 323 323 323 322 322 323 325 326 325 326 329 328 329 329 326 326 326 327 328 329 328 328 332 326 341 341 335 335 336 339 340 342
306 308 309 312 319 317 319 322 327 327 325 324 322 322 323 322 322 322 323 323 323 326 326 327 327 328 327 327 328 327 330 333 335 332 337 331 325 338 337 332 331 332 337 336 338
307 310 315 313 318 318 321 325 326 320 325 323 322 322 323 323 323 323 324 324 325 324 327 327 329 327 326 327 330 331 330 330 334 333 332 330 330 335 332 330 329 331 334 336 337
308 316 317 321 319 320 323 324 322 320 325 324 323 322 323 323 324 324 324 325 323 326 328 327 330 327 326 326 325 329 329 332 331 331 327 328 329 330 329 329 328 330 332 335 336
311 316 318 322 321 320 323 324 322 322 326 325 324 324 325 324 324 324 325 325 325 325 327 329 331 327 327 325 324 325 330 329 330 332 333 329 327 328 333 328 328 329 332 335 335
315 319 324 320 321 322 323 322 321 322 325 326 325 325 326 325 325 326 326 327 325 326 326 326 328 330 327 326 328 327 325 325 327 328 329 328 329 330 330 329 328 328 330 334 334
317 317 323 321 324 323 322 321 316 321 324 326 326 327 327 326 326 325 325 328 328 328 326 327 330 330 330 328 326 324 325 325 327 328 329 329 329 326 328 328 328 327 329 331 337
320 319 322 322 324 323 323 322 320 319 323 325 325 326 327 327 327 325 326 328 327 328 328 331 328 331 331 330 329 328 325 325 328 330 328 326 324 329 329 328 327 327 327 328 333
319 318 320 324 324 328 325 324 321 321 322 324 326 326 327 327 329 329 329 327 327 328 321 329 331 333 333 331 328 330 327 327 328 331 329 327 325 327 328 327 327 327 327 325 326
319 319 325 323 323 325 327 325 323 324 320 322 323 326 328 328 327 327 328 329 327 324 327 332 335 330 329 328 327 326 325 324 326 327 329 328 326 325 325 324 324 326 326 325 324
320 319 320 324 327 325 322 326 324 324 324 323 324 323 324 328 329 329 328 329 328 328 329 331 332 329 330 328 327 326 326 326 325 325 325 325 326 325 325 325 326 326 326 328 327
317 316 320 319 322 324 325 324 324 324 323 325 325 326 327 327 329 330 331 332 332 330 331 332 332 330 330 328 328 329 328 328 327 327 326 327 327 327 327 327 325 325 329 329 328
Wind_Speed
15 16 16 17 18 19 18 18 17 16 14 13 12 13 13 12 10 8 8 3 7 7 8 10 12 11 11 12 8 10 9 12 13 2 11 7 3 6 4 3 3 6 7 13 21
16 17 18 18 19 19 19 18 17 14 12 9 11 12 11 11 10 15 0 5 9 10 8 12 11 11 11 10 7 10 10 9 8 7 3 3 2 5 3 8 7 7 9 20 20
17 18 19 20 20 19 19 18 15 11 9 9 10 10 10 8 11 8 6 6 14 10 12 10 7 11 12 9 8 12 13 4 3 5 5 6 7 3 4 7 6 11 14 17 18
18 19 21 21 21 20 20 17 13 9 8 9 8 9 9 6 1 7 9 8 13 8 10 10 10 13 10 8 8 10 9 6 8 5 9 10 6 4 5 4 8 5 20 15 14
19 20 22 23 21 20 19 15 11 9 7 5 6 7 5 9 8 8 10 8 8 9 11 10 10 10 10 6 3 9 3 6 8 9 11 8 10 8 9 6 12 2 14 16 14
20 21 23 24 21 20 18 14 10 8 5 4 5 5 6 10 7 11 9 9 10 10 9 6 4 6 4 4 9 3 4 6 8 12 11 11 10 4 3 5 5 5 10 13 13
20 22 24 24 22 21 17 13 9 7 3 3 2 3 9 5 7 10 9 10 9 10 5 2 5 8 2 5 5 6 10 12 9 9 8 6 11 12 9 3 5 6 7 10 10
21 22 24 25 23 21 16 13 8 4 2 2 3 6 2 5 7 10 11 8 7 6 8 4 6 12 8 3 8 12 13 11 9 5 6 9 15 17 6 5 7 8 6 3 10
22 23 25 26 23 22 12 8 3 1 1 1 4 8 7 7 10 12 11 12 11 10 8 5 10 13 6 11 12 10 10 12 8 1 2 9 12 9 4 5 6 9 4 7 8
25 24 25 26 24 18 9 3 1 1 1 5 10 8 10 13 11 12 11 9 10 9 10 10 9 11 12 14 7 6 6 2 5 6 5 3 8 8 4 2 1 4 8 6 9
24 26 25 26 24 13 3 2 5 6 12 8 10 7 10 8 12 14 14 12 11 9 14 15 12 6 8 8 9 5 6 5 6 3 8 4 7 10 10 9 7 4 1 4 8
25 25 25 25 22 8 4 6 8 7 9 9 5 7 3 13 12 14 15 12 11 15 5 10 6 7 2 1 4 4 5 6 4 2 14 7 8 6 10 12 10 9 9 7 3
25 26 26 24 17 5 7 5 7 6 7 10 10 11 11 11 12 15 14 14 12 8 11 10 13 5 6 8 9 1 9 5 4 8 10 9 8 8 11 11 12 12 12 13 10
25 26 26 23 7 5 7 2 8 3 5 11 12 8 8 7 7 15 17 8 7 12 7 4 6 7 10 4 11 10 4 4 6 9 7 4 6 9 8 12 11 12 12 15 14
25 26 25 20 14 10 4 6 6 4 6 17 15 13 12 15 14 11 13 8 12 5 9 10 10 10 12 11 6 8 4 7 7 10 8 12 7 9 29 13 10 11 11 13 14
26 27 26 5 7 12 7 7 6 7 4 10 10 13 14 11 13 13 11 11 5 4 11 10 2 6 11 3 3 4 9 11 11 12 9 2 8 10 8 5 8 11 12 12 12
27 28 22 11 6 6 7 9 7 9 12 11 16 18 17 13 11 15 17 14 10 9 10 5 12 6 9 11 9 7 10 9 9 7 9 3 7 8 15 7 8 8 11 12 10
30 23 11 13 7 7 7 7 9 4 10 13 15 15 14 13 14 17 14 13 11 13 8 8 10 11 2 8 10 4 7 7 7 5 5 7 2 7 11 6 8 8 9 8 9
29 10 9 7 8 7 8 9 7 5 7 10 11 14 13 15 6 12 14 13 8 10 5 5 4 5 1 4 7 6 8 9 9 8 7 4 6 10 7 7 5 8 5 7 6
19 13 14 5 7 10 9 15 6 2 6 8 15 15 14 14 11 12 13 6 6 4 5 3 3 8 9 6 6 10 8 6 8 3 13 4 4 4 12 7 8 7 9 6 3
9 6 7 8 8 8 10 15 11 5 5 8 14 11 13 14 16 13 10 8 5 9 7 9 4 5 6 11 3 7 9 4 5 6 9 9 6 10 6 6 2 7 8 7 4
8 8 7 10 8 10 11 14 4 9 9 7 8 8 14 11 10 14 10 5 3 4 10 9 4 9 8 7 2 7 13 2 6 4 6 6 12 5 0 3 5 11 1 4 2
5 7 6 12 9 10 11 6 9 9 10 8 8 8 6 7 8 11 5 6 2 6 4 4 7 9 13 12 9 10 12 8 6 6 13 12 9 7 5 2 3 6 6 6 5
5 5 6 8 13 10 11 12 12 5 8 5 7 4 8 8 6 8 4 2 3 3 3 2 9 11 12 12 4 7 8 8 9 9 13 12 15 7 10 7 8 12 12 10 8
5 5 5 7 12 12 10 8 12 8 11 8 10 12 11 9 12 11 10 7 7 5 5 4 11 13 16 14 14 14 19 18 17 16 16 18 19 16 14 9 8 10 12 13 16
6 4 2 8 6 9 7 12 11 8 3 11 11 13 12 11 10 10 9 11 9 9 9 4 10 12 16 15 18 19 17 20 20 20 21 20 20 17 13 15 8 11 12 11 13
2 8 5 3 9 11 13 14 9 1 3 6 5 4 10 2 5 7 6 6 6 3 9 8 9 11 15 14 16 14 14 19 19 19 19 18 17 12 9 9 7 9 7 10 11
Wind_Direction
346 344 344 339 337 333 328 323 316 315 312 308 302 304 301 300 300 266 252 111 192 192 172 185 209 214 220 229 250 239 255 252 234 186 108 149 303 112 75 276 188 69 34 127 149
347 347 343 339 336 333 329 323 316 315 306 301 307 310 308 305 282 237 183 198 182 169 196 190 201 200 211 220 209 236 234 262 21 43 53 22 344 40 274 174 160 144 95 129 153
348 350 344 338 335 334 331 326 320 315 302 303 307 311 306 317 264 93 144 166 172 183 255 230 226 213 236 223 214 216 262 333 56 256 311 312 263 58 251 245 142 165 136 149 164
352 353 346 340 336 337 334 329 323 314 304 307 307 308 302 271 326 116 155 159 180 203 246 221 218 220 244 219 210 261 248 302 249 170 242 255 348 274 266 336 71 45 135 155 166
354 351 349 343 340 340 334 328 319 316 309 306 309 308 299 223 77 148 168 165 182 216 212 195 208 233 243 220 202 249 252 234 249 254 242 271 276 288 280 16 122 126 138 158 174
356 350 350 343 343 340 331 326 317 319 321 310 315 308 262 247 113 143 160 180 195 207 210 242 283 314 301 263 246 103 293 267 230 231 229 245 247 252 177 14 139 137 151 162 173
356 350 349 343 345 339 332 323 313 310 324 319 301 286 259 62 145 161 173 185 200 230 203 267 301 241 9 203 247 250 248 210 215 220 246 273 255 247 252 320 297 142 159 152 171
352 349 348 343 346 340 330 322 307 277 308 325 292 255 32 123 160 173 183 190 197 224 275 264 258 276 261 358 227 241 222 210 118 258 155 237 258 209 97 252 274 150 102 182 167
348 348 347 344 346 337 326 329 3 205 284 306 264 227 145 153 192 183 187 180 196 216 228 275 256 253 196 239 216 210 245 117 126 330 156 220 249 65 348 288 270 103 129 199 170
347 345 345 343 342 335 324 294 278 156 260 251 268 255 166 206 170 175 197 250 207 206 216 223 224 216 217 225 277 122 113 135 114 121 234 227 46 29 25 258 158 222 179 200 184
343 343 343 343 339 332 328 245 208 197 222 276 169 287 141 132 158 189 195 214 227 217 228 201 232 216 62 20 4 20 342 41 76 72 283 42 76 65 58 57 57 10 292 186 184
341 341 339 341 336 314 294 274 30 343 272 213 224 276 159 161 181 187 192 218 207 219 208 206 221 68 46 67 258 243 238 134 98 206 274 142 133 104 102 92 77 61 54 37 92
339 339 336 339 332 272 262 345 328 319 249 162 193 203 181 207 186 177 206 227 220 207 216 288 94 128 208 188 220 8 340 80 296 153 257 276 158 0 139 115 99 75 65 63 50
338 337 335 337 305 316 248 302 315 314 261 149 187 210 180 224 176 175 211 211 236 220 220 84 118 180 232 156 292 139 57 291 250 245 260 208 282 161 147 110 85 79 60 64 62
335 335 331 325 302 271 30 323 317 248 244 149 164 137 180 213 138 196 208 213 235 215 243 116 171 208 236 74 305 59 343 282 298 263 293 221 261 134 344 95 71 70 73 75 71
331 331 325 305 250 259 293 302 269 233 207 154 151 186 185 212 194 146 186 247 342 235 235 125 2 307 38 137 274 354 250 233 234 229 230 137 299 136 153 359 92 87 83 73 74
327 325 310 276 262 307 286 258 229 251 134 157 173 178 191 180 174 174 193 202 191 210 201 174 201 130 264 233 186 231 251 245 250 240 160 230 294 85 192 97 76 74 92 87 83
327 317 288 245 261 283 256 238 252 251 192 156 182 187 195 177 173 190 194 199 229 230 234 210 175 213 162 300 338 296 332 305 295 335 154 174 312 77 93 117 102 98 96 101 110
330 307 252 256 229 234 242 219 230 244 167 188 209 193 200 184 185 195 202 208 170 223 290 221 129 112 308 308 280 158 247 17 311 256 266 215 126 175 162 158 163 137 118 127 126
322 289 249 203 205 211 235 247 274 350 318 279 199 202 197 186 211 202 191 188 150 237 297 344 257 172 140 258 216 284 10 246 224 222 264 143 202 198 168 190 184 189 174 143 173
289 251 122 178 180 218 230 233 226 161 248 241 239 213 237 191 199 198 214 138 232 184 239 265 238 173 177 228 249 180 214 236 330 316 317 301 60 63 132 163 290 211 181 142 195
286 239 135 173 208 221 228 228 8 248 206 238 295 245 234 244 205 240 220 118 103 206 221 232 274 256 226 64 309 282 288 293 276 233 255 309 292 134 327 247 230 278 357 225 92
274 287 152 204 230 214 223 230 224 227 225 215 225 230 252 238 237 242 207 65 188 226 306 168 230 248 246 218 216 246 234 246 269 291 265 276 281 109 86 286 241 278 293 304 172
273 231 188 209 260 296 216 220 206 216 270 249 272 215 208 222 231 220 179 155 216 213 5 344 250 263 282 322 339 225 228 243 263 268 277 273 284 213 192 217 230 237 250 269 269
245 252 2 197 219 235 269 242 216 181 230 210 224 234 219 222 210 225 206 140 201 150 201 241 247 253 263 274 288 280 284 282 265 246 250 275 288 292 304 314 306 330 319 295 281
294 292 236 275 297 226 190 236 237 175 242 215 239 222 242 237 246 236 205 208 208 175 229 206 256 267 274 279 276 269 261 274 269 267 270 270 267 278 288 286 314 293 285 290 273
280 269 273 229 219 238 232 225 223 243 179 321 280 230 227 112 16 17 6 25 356 262 213 229 256 254 260 273 278 269 265 263 264 265 270 268 273 283 298 294 277 284 307 282 279